Location: Haut Kerinec
(48.0623°N, 4.4081°W)
Time: 22:28:11
(UTC+00:00)

STARLINK-1254 - Pass Details

Date: 01 October 2020
Orbit: 548 x 551 km, 53.0° (Epoch: 26 October)

Event Time Altitude Azimuth Distance (km) Brightness Sun altitude
Exits shadow 04:20:14 59° 239° (WSW) 642 3.6 -20.1°
Maximum altitude 04:20:34 61° 213° (SSW) 626 3.6 -20.1°
Drops below altitude 10° 04:24:39 10° 133° (SE) 1,821 6.6 -19.4°
Sets 04:26:53 0° 130° (SE) 2,712 7.6 -19.1°
